Weather History for KAQP - May, 2009

Change the Weather History Date:

Sunday, May 10, 2009

  Actual Average Record
Temperature  
Mean Temperature 44 °F -  
Max Temperature 57 °F 64 °F 84 °F (2011)
Min Temperature 30 °F 41 °F 28 °F (2002)
Degree Days  
Heating Degree Days 22    
Moisture  
Dew Point 32 °F    
Average Humidity 67    
Maximum Humidity 100    
Minimum Humidity 33    
Precipitation  
Precipitation 0.00 in - - ()
Sea Level Pressure  
Sea Level Pressure 30.21 in    
Wind  
Wind Speed 7 mph (NW)    
Max Wind Speed 16 mph    
Max Gust Speed 22 mph    
Visibility 10 miles    
Events      
Averages and records for this station are not official NWS values.
T = Trace of Precipitation, MM = Missing Value Source: NWS Daily Summary

Daily Weather History Graph

Daily Weather History Graph

Search for Another Location

Airport or City:

Trip Planner

Search our weather history database for the weather conditions in past years. The results will help you decide how hot, cold, wet, or windy it might be!

Date:

Astronomy

May. 10, 2009 Rise Set
Actual Time 5:59 AM CDT 8:41 PM CDT
Civil Twilight 5:26 AM CDT 9:15 PM CDT
Nautical Twilight 4:43 AM CDT 9:58 PM CDT
Astronomical Twilight 3:54 AM CDT 10:47 PM CDT
Moon 10:52 PM CDT (5/10) 6:24 AM CDT (5/10)
Length of Visible Light 15h 49m
Length of Day
14h 41m
Full, 98% of the Moon is Illuminated
May 10
Full
May 17
Last Quarter
May 24
New
May 30
First Quarter
Jun 7
Full

Hourly Weather History & Observations

Time (CDT) Temp. Windchill Dew Point Humidity Pressure Visibility Wind Dir Wind Speed Gust Speed Precip Events Conditions
12:14 AM 33.8 °F 29.6 °F 33.8 °F 100% 30.17 in 10.0 mi WNW 4.6 mph - N/A   Overcast
12:34 AM 35.6 °F 30.7 °F 35.6 °F 100% 30.17 in 10.0 mi WNW 5.8 mph - N/A   Overcast
12:54 AM 35.6 °F 30.7 °F 35.6 °F 100% 30.17 in 10.0 mi WNW 5.8 mph - N/A   Scattered Clouds
1:14 AM 33.8 °F 28.6 °F 33.8 °F 100% 30.17 in 10.0 mi WNW 5.8 mph - N/A   Clear
1:34 AM 33.8 °F 28.6 °F 33.8 °F 100% 30.18 in 10.0 mi NW 5.8 mph - N/A   Clear
1:54 AM 33.8 °F 27.7 °F 33.8 °F 100% 30.19 in 10.0 mi WNW 6.9 mph - N/A   Clear
2:14 AM 32.0 °F 25.6 °F 32.0 °F 100% 30.19 in 10.0 mi WNW 6.9 mph - N/A   Clear
2:34 AM 32.0 °F 24.8 °F 32.0 °F 100% 30.19 in 10.0 mi WNW 8.1 mph - N/A   Clear
2:54 AM 35.6 °F 29.9 °F 35.6 °F 100% 30.19 in 10.0 mi WNW 6.9 mph - N/A   Clear
3:14 AM 33.8 °F 27.7 °F 33.8 °F 100% 30.19 in 10.0 mi NW 6.9 mph - N/A   Clear
3:34 AM 33.8 °F 28.6 °F 33.8 °F 100% 30.19 in 10.0 mi NW 5.8 mph - N/A   Clear
4:14 AM 30.2 °F 26.7 °F 30.2 °F 100% 30.20 in 10.0 mi WNW 3.5 mph - N/A   Clear
4:34 AM 30.2 °F 23.4 °F 30.2 °F 100% 30.20 in 10.0 mi West 6.9 mph - N/A   Clear
5:14 AM 30.2 °F 24.3 °F 30.2 °F 100% 30.21 in 10.0 mi WNW 5.8 mph - N/A   Scattered Clouds
5:34 AM 32.0 °F 26.4 °F 32.0 °F 100% 30.21 in 10.0 mi WNW 5.8 mph - N/A   Overcast
5:54 AM 35.6 °F 29.9 °F 35.6 °F 100% 30.21 in 10.0 mi NW 6.9 mph - N/A   Overcast
6:14 AM 37.4 °F 32.1 °F 35.6 °F 93% 30.21 in 10.0 mi NNW 6.9 mph - N/A   Overcast
6:34 AM 37.4 °F 32.1 °F 35.6 °F 93% 30.23 in 10.0 mi NW 6.9 mph - N/A   Overcast
6:54 AM 35.6 °F 31.7 °F 35.6 °F 100% 30.23 in 10.0 mi West 4.6 mph - N/A   Overcast
7:14 AM 37.4 °F 32.8 °F 37.4 °F 100% 30.25 in 10.0 mi West 5.8 mph - N/A   Overcast
7:34 AM 37.4 °F 30.3 °F 35.6 °F 93% 30.25 in 10.0 mi NNW 10.4 mph - N/A   Overcast
8:14 AM 39.2 °F 33.6 °F 35.6 °F 87% 30.25 in 10.0 mi North 8.1 mph - N/A   Mostly Cloudy
8:34 AM 42.8 °F 36.6 °F 37.4 °F 81% 30.25 in 10.0 mi NW 11.5 mph - N/A   Mostly Cloudy
8:54 AM 39.2 °F 32.5 °F 35.6 °F 87% 30.26 in 10.0 mi WNW 10.4 mph - N/A   Overcast
9:14 AM 39.2 °F 33.6 °F 33.8 °F 81% 30.26 in 10.0 mi NW 8.1 mph - N/A   Mostly Cloudy
9:34 AM 41.0 °F 34.3 °F 35.6 °F 81% 30.26 in 10.0 mi NW 11.5 mph 16.1 mph N/A   Overcast
9:54 AM 42.8 °F 36.2 °F 35.6 °F 76% 30.26 in 10.0 mi NW 12.7 mph 17.3 mph N/A   Overcast
10:14 AM 44.6 °F 38.8 °F 35.6 °F 71% 30.26 in 10.0 mi WNW 11.5 mph - N/A   Mostly Cloudy
10:34 AM 44.6 °F 38.8 °F 35.6 °F 71% 30.26 in 10.0 mi NW 11.5 mph - N/A   Mostly Cloudy
10:53 AM 44.6 °F 39.7 °F 35.6 °F 71% 30.26 in 10.0 mi NNW 9.2 mph 16.1 mph N/A   Mostly Cloudy
11:14 AM 46.4 °F 42.4 °F 33.8 °F 62% 30.25 in 10.0 mi NW 8.1 mph - N/A   Scattered Clouds
11:33 AM 46.4 °F 41.1 °F 35.6 °F 66% 30.25 in 10.0 mi NNW 11.5 mph 17.3 mph N/A   Scattered Clouds
11:54 AM 46.4 °F 40.7 °F 33.8 °F 62% 30.25 in 10.0 mi North 12.7 mph 20.7 mph N/A   Scattered Clouds
12:14 PM 48.2 °F - 33.8 °F 58% 30.24 in 10.0 mi NW 11.5 mph 19.6 mph N/A   Scattered Clouds
12:33 PM 48.2 °F - 33.8 °F 58% 30.24 in 10.0 mi North 13.8 mph 21.9 mph N/A   Scattered Clouds
12:54 PM 51.8 °F - 33.8 °F 50% 30.24 in 10.0 mi NNW 11.5 mph 16.1 mph N/A   Clear
1:13 PM 51.8 °F - 33.8 °F 50% 30.23 in 10.0 mi North 11.5 mph 21.9 mph N/A   Clear
1:34 PM 51.8 °F - 33.8 °F 50% 30.23 in 10.0 mi NW 11.5 mph 20.7 mph N/A   Clear
1:53 PM 51.8 °F - 32.0 °F 47% 30.22 in 10.0 mi NNW 9.2 mph - N/A   Clear
2:13 PM 53.6 °F - 30.2 °F 41% 30.22 in 10.0 mi NNW 12.7 mph - N/A   Clear
2:33 PM 53.6 °F - 30.2 °F 41% 30.21 in 10.0 mi NW 9.2 mph - N/A   Clear
2:53 PM 53.6 °F - 30.2 °F 41% 30.20 in 10.0 mi North 6.9 mph 16.1 mph N/A   Clear
3:13 PM 55.4 °F - 30.2 °F 38% 30.20 in 10.0 mi North 10.4 mph 17.3 mph N/A   Scattered Clouds
3:33 PM 55.4 °F - 30.2 °F 38% 30.20 in 10.0 mi NNW 11.5 mph 17.3 mph N/A   Clear
3:53 PM 55.4 °F - 28.4 °F 36% 30.19 in 10.0 mi North 16.1 mph - N/A   Clear
4:13 PM 55.4 °F - 28.4 °F 36% 30.19 in 10.0 mi NNW 11.5 mph - N/A   Clear
4:33 PM 57.2 °F - 30.2 °F 36% 30.19 in 10.0 mi NW 8.1 mph 16.1 mph N/A   Clear
4:53 PM 55.4 °F - 28.4 °F 36% 30.18 in 10.0 mi NNW 10.4 mph 18.4 mph N/A   Clear
5:13 PM 55.4 °F - 28.4 °F 36% 30.18 in 10.0 mi North 8.1 mph - N/A   Clear
5:33 PM 57.2 °F - 28.4 °F 33% 30.18 in 10.0 mi NW 8.1 mph - N/A   Clear
5:53 PM 57.2 °F - 28.4 °F 33% 30.18 in 10.0 mi NNW 9.2 mph - N/A   Clear
6:13 PM 55.4 °F - 28.4 °F 36% 30.18 in 10.0 mi WNW 4.6 mph - N/A   Clear
6:33 PM 55.4 °F - 28.4 °F 36% 30.18 in 10.0 mi NNW 3.5 mph - N/A   Clear
6:53 PM 55.4 °F - 26.6 °F 33% 30.17 in 10.0 mi NW 5.8 mph - N/A   Clear
7:13 PM 55.4 °F - 28.4 °F 36% 30.17 in 10.0 mi NW 5.8 mph - N/A   Clear
7:33 PM 55.4 °F - 26.6 °F 33% 30.18 in 10.0 mi NNW 5.8 mph - N/A   Clear
7:53 PM 53.6 °F - 28.4 °F 38% 30.18 in 10.0 mi NW 5.8 mph - N/A   Clear
8:13 PM 51.8 °F - 28.4 °F 41% 30.18 in 10.0 mi NW 5.8 mph - N/A   Clear
8:33 PM 50.0 °F - 28.4 °F 43% 30.18 in 10.0 mi WNW 4.6 mph - N/A   Clear
8:53 PM 48.2 °F - 28.4 °F 46% 30.18 in 10.0 mi WNW 3.5 mph - N/A   Clear
9:13 PM 46.4 °F 45.2 °F 28.4 °F 50% 30.19 in 10.0 mi WNW 3.5 mph - N/A   Clear
9:33 PM 42.8 °F - 28.4 °F 57% 30.19 in 10.0 mi Calm Calm - N/A   Clear
9:53 PM 42.8 °F - 28.4 °F 57% 30.19 in 10.0 mi Calm Calm - N/A   Clear
10:13 PM 44.6 °F - 30.2 °F 57% 30.19 in 10.0 mi Calm Calm - N/A   Clear
10:33 PM 44.6 °F - 35.6 °F 71% 30.19 in 10.0 mi Calm Calm - N/A   Clear
10:53 PM 42.8 °F - 39.2 °F 87% 30.19 in 10.0 mi Calm Calm - N/A   Clear
11:13 PM 41.0 °F - 37.4 °F 87% 30.19 in 10.0 mi Calm Calm - N/A   Clear
11:33 PM 39.2 °F - 37.4 °F 93% 30.19 in 10.0 mi Calm Calm - N/A   Clear
11:53 PM 39.2 °F - 35.6 °F 87% 30.19 in 10.0 mi Calm Calm - N/A   Clear